Location: Ajisawe
(8.4333°N, 4.3833°E)
Time: 00:47:06
(UTC+00:00)

S-56A Canister/Altair - Pass Details

Date: 22 April 2021
Orbit: 631 x 2501 km, 38.9° (Epoch: 15 May)

Event Time Altitude Azimuth Distance (km) Brightness Sun altitude
Rises 17:56:38 0° 218° (SW) 6,177 12.5 -2.0°
Reaches altitude 10° 18:00:54 10° 214° (SW) 5,137 12.0 -3.0°
Maximum altitude 18:15:14 57° 140° (SE) 2,438 9.8 -6.5°
Drops below altitude 10° 18:25:56 10° 64° (ENE) 3,943 10.7 -9.0°
Sets 18:28:45 0° 60° (ENE) 4,701 11.1 -9.7°
